Location: Poughquag
(41.6090°N, 73.6820°W)
Time: 14:36:38
(UTC-04:00)

Transit 2A - Pass Details

Date: 06 June 2020
Orbit: 592 x 967 km, 66.7° (Epoch: 05 July)

Event Time Altitude Azimuth Distance (km) Brightness Sun altitude
Rises 21:43:25 0° 327° (NNW) 3,583 11.3 -12.0°
Reaches altitude 10° 21:45:56 10° 325° (NW) 2,667 10.3 -12.3°
Maximum altitude 21:52:12 69° 244° (WSW) 1,029 6.7 -13.1°
Enters shadow 21:57:25 16° 164° (SSE) 2,303 7.9 -13.8°
